Location: *
(48.1500°N, 13.1167°E)
Time: 01:46:43
(UTC+00:00)

Daily predictions for brighter satellites

Satellite Brightness Start Highest point End
(mag) Time Altitude Azimuth Time Altitude Azimuth Time Altitude Azimuth
Cosmos 1464 Rocket 4.1 00:08:47 50° SW 00:10:19 66° WNW 00:16:32 10° N
Cosmos 1536 Rocket 3.9 00:06:39 10° N 00:10:56 56° ENE 00:11:19 54° E
Cosmos 2219 Rocket 2.4 00:05:35 10° NW 00:11:03 50° WSW 00:11:13 49° WSW
Cosmos 1782 Rocket 4.2 00:12:54 44° WNW 00:12:54 44° WNW 00:17:00 10° N
Lacrosse 4 Rocket 2.2 00:13:01 42° WNW 00:13:22 43° NW 00:17:25 10° NNE
Cosmos 1354 Rocket 4.1 00:16:38 57° WSW 00:17:33 70° WNW 00:22:54 10° NNE
Cosmos 968 Rocket 4.3 00:19:13 35° W 00:20:22 40° WNW 00:25:14 10° N
SL-4 R/B 2.8 00:22:19 39° NE 00:22:19 39° NE 00:24:48 10° E
SL-16 R/B 3.7 00:17:25 10° NNW 00:22:38 35° NE 00:27:49 10° ESE
COSMOS 2428 3.2 00:23:46 10° NW 00:29:06 41° WSW 00:29:11 41° WSW
SL-16 R/B 2.6 00:28:37 32° SSE 00:31:40 76° ENE 00:37:57 10° NNW
Nadezhda 4 Rocket 4.2 00:27:39 10° NNW 00:33:48 55° W 00:35:18 45° SW
Cosmos 2360 Rocket 4.3 00:31:52 10° WNW 00:33:24 12° W 00:33:24 12° W
BREEZE-M TANK 3.4 00:36:08 33° ESE 00:36:08 33° ESE 00:38:59 10° E
NPP 4.3 00:29:55 10° NNE 00:35:07 46° E 00:36:53 34° SE
CENTAUR R/B 4.4 00:29:53 10° WNW 00:35:37 30° NNW 00:42:11 10° NE
CZ-2D R/B 2.6 00:30:57 10° NNE 00:36:22 56° E 00:38:04 40° SSE
USA 267 4.0 00:31:09 10° E 00:37:27 53° NNE 00:43:47 10° NW
Cosmos 2034 Rocket 4.2 00:35:41 43° SW 00:37:29 58° WNW 00:43:43 10° N
GEOS 3 Rocket 3.7 00:35:40 10° NE 00:41:06 81° NW 00:42:46 46° SW
Okean 2 Rocket 3.3 00:41:46 55° W 00:42:05 56° WNW 00:46:31 10° N
Cosmos 1428 Rocket 4.5 00:36:56 10° N 00:43:13 82° E 00:46:05 35° SSE
KORONAS-FOTON 4.1 00:39:40 10° N 00:43:24 58° ENE 00:43:44 55° ESE
ADEOS II 3.6 00:40:14 10° NE 00:44:45 28° E 00:47:28 19° SE
Cosmos 1092 Rocket 3.9 00:39:45 10° NNW 00:46:00 70° W 00:48:01 44° SSW
Cosmos 2297 Rocket 2.4 00:45:36 44° S 00:47:11 63° ESE 00:52:48 10° NNE
Cosmos 2219 3.2 00:45:50 48° S 00:47:23 73° ESE 00:53:00 10° NNE
Cosmos 1980 3.6 00:42:40 10° NNW 00:48:19 66° WSW 00:49:51 46° S
Helios 1B rocket 3.6 00:44:57 10° N 00:48:30 29° WNW 00:48:49 29° WNW
Cosmos 2333 Rocket 3.5 00:44:03 10° NW 00:48:11 24° W 00:48:11 24° W
Uosat 12 SS-18 rocket 4.5 00:48:34 51° SSE 00:49:24 59° SE 00:53:52 10° NE
Cosmos 1777 Rocket 3.9 00:49:00 53° SSW 00:50:19 90° NW 00:55:39 10° NNE
Cosmos 1766 4.1 00:51:10 38° ESE 00:51:49 42° E 00:55:31 10° NNE
Meteor 1-29 4.2 00:49:25 10° N 00:52:12 32° NW 00:52:12 32° NW
UNK 3.6 00:52:22 55° S 00:53:22 81° WSW 00:58:05 10° NNW
Cosmos 44 Rocket 4.1 00:51:17 10° NW 00:55:08 35° W 00:55:08 35° W
Cosmos 1300 Rocket 4.1 00:57:53 40° W 00:58:14 41° WNW 01:02:20 10° N
Cosmos 2237 Rocket 2.2 00:52:47 10° NW 00:58:20 59° WSW 00:59:51 44° SSW
DELTA 2 DEB (DPAF) 4.3 01:00:27 51° WSW 01:00:42 52° W 01:05:04 10° NNW
Okean 1 Rocket 3.0 01:01:02 56° S 01:01:54 79° E 01:06:16 10° NNE
Cosmos 1626 3.2 00:59:26 10° N 01:02:58 40° ENE 01:04:26 27° SE
CZ-4B R/B 3.9 00:58:28 10° NNE 01:03:06 49° E 01:04:54 32° SSE
CZ-4C R/B 3.2 01:04:19 59° WNW 01:04:19 59° WNW 01:07:27 10° NNW
Cosmos 923 Rocket 4.3 01:01:11 10° NNW 01:06:32 70° ENE 01:10:51 16° SSE
IKONOS-2 4.4 01:10:35 55° SSW 01:11:22 71° WSW 01:15:37 10° NNW
Cosmos 2151 Rocket 4.3 01:12:29 36° W 01:13:09 38° WNW 01:17:18 10° N
Cosmos 158 Rocket 4.4 01:09:31 10° NNW 01:14:52 64° ENE 01:20:13 10° SSE
Timation 2 Rocket 4.3 01:14:34 31° WSW 01:17:25 55° NW 01:23:21 10° NNE
Cosmos 1805 3.2 01:24:26 54° SW 01:25:06 66° W 01:29:00 10° N
Meteor 1-15 Rocket 4.3 01:22:53 36° SW 01:25:10 63° WNW 01:30:46 10° N
SL-14 R/B 3.4 01:22:43 10° N 01:26:41 72° E 01:28:23 32° SSE
SJ 16-02 1.6 01:25:10 35° S 01:26:49 61° ESE 01:31:11 10° NNE
DNEPR-1 R/B 3.9 01:21:59 10° NW 01:27:46 63° WSW 01:31:05 20° SSE
ERBS 2.0 01:24:56 10° NW 01:28:14 81° SW 01:31:31 10° SE
Cosmos 2227 Rocket 2.3 01:33:34 32° SW 01:36:15 69° WNW 01:41:56 10° NNE
Cosmos 1455 Rocket 3.6 01:34:24 24° SSE 01:36:54 55° E 01:41:15 10° NNE
Resurs 1-4 Rocket 2.6 01:32:03 10° N 01:37:07 48° WNW 01:39:24 29° SW
Cosmos 1674 3.7 01:36:40 10° NNW 01:39:47 28° W 01:39:47 28° W
Cosmos 1758 4.5 01:37:38 17° SSE 01:40:18 39° E 01:44:05 10° NNE
Cosmos 2180 Rocket 4.4 01:36:43 26° SSW 01:40:22 82° W 01:46:32 10° N
Cosmos 1892 Rocket 3.5 01:39:03 10° NNW 01:43:33 80° W 01:46:08 25° S
Cosmos 1733 3.3 01:42:53 41° SW 01:43:54 57° WNW 01:47:42 10° N
USA 215 3.3 01:40:40 10° NE 01:47:15 77° SE 01:51:29 24° SW
Cosmos 2279 Rocket 4.1 01:44:47 27° SSW 01:48:08 59° WNW 01:54:17 10° N
ATLAS 3B R/B 4.4 01:43:25 10° WNW 01:48:47 25° NNW 01:54:15 10° NE
Cosmos 1461 3.6 01:47:03 27° S 01:49:05 50° ESE 01:53:29 10° NE
COBE Rocket 4.0 01:47:33 30° SSW 01:49:36 51° W 01:54:09 10° NNW
Lacrosse 4 Rocket 4.2 01:52:32 10° NW 01:53:08 10° NNW 01:53:43 10° NNW
FALCON 9 DEB 3.3 01:51:11 10° WNW 01:54:41 72° NNE 01:58:08 10° ESE
Cosmos 2082 3.7 01:53:29 26° SSW 01:56:47 80° WNW 02:02:26 10° NNE
Cosmos 1340 Rocket 3.2 01:54:19 20° S 01:56:53 59° E 02:00:49 10° NNE
Cosmos 2112 Rocket 3.9 01:55:33 10° NNW 02:00:45 66° WSW 02:05:53 10° S
SL-4 R/B 1.5 01:58:02 12° WNW 02:01:04 56° SSW 02:04:24 10° SE
ERS-2 4.3 01:59:11 10° SE 02:02:19 28° ENE 02:05:29 10° N
Cosmos 1953 3.7 01:59:39 10° SSE 02:03:20 36° E 02:07:02 10° NNE
Meteor 1-24 Rocket 3.9 02:00:12 10° NNW 02:05:27 47° W 02:08:55 20° SSW
CBERS-1 4.2 02:01:00 10° N 02:06:00 56° WNW 02:09:09 22° SW
SL-16 R/B 2.5 02:01:29 10° NW 02:06:55 46° WSW 02:12:17 10° S
Cosmos 1726 3.2 02:04:07 11° SSE 02:07:23 41° E 02:10:53 10° NNE
Meteor 2-5 Rocket 4.4 02:03:59 10° NNW 02:09:02 35° W 02:11:59 21° SW
Cosmos 1937 Rocket 3.7 02:06:56 17° S 02:11:03 70° ESE 02:16:22 10° NNE
ARIANE 5 R/B 2.6 02:08:18 10° NNE 02:13:34 85° ESE 02:18:02 14° SSW
H-2A R/B 2.9 02:10:11 10° SE 02:14:10 50° ENE 02:18:09 10° N
Cosmos 1898 Rocket 3.5 02:11:42 20° SSW 02:15:24 83° WNW 02:20:40 10° NNE
SL-16 R/B 3.8 02:13:43 18° WSW 02:15:55 21° W 02:20:33 10° NW
CZ-2D R/B 3.5 02:11:36 10° N 02:16:05 27° WNW 02:19:24 15° WSW
IDEFIX/ARIANE 42P 3.0 02:11:17 10° NNE 02:16:28 62° ESE 02:21:36 10° S
Cosmos 1680 Rocket 3.9 02:13:33 10° NW 02:18:26 40° WSW 02:22:58 12° S
USA 267 3.2 02:13:48 10° SE 02:20:20 74° SW 02:26:54 10° WNW
NOSS 3-1 (C) 3.4 02:17:24 18° SSW 02:21:32 75° SE 02:27:57 10° NE
Cosmos 1544 Rocket 3.6 02:20:01 17° SSW 02:23:24 71° WNW 02:27:53 10° N
ADEOS II 2.6 02:19:37 10° N 02:24:38 46° WNW 02:28:23 17° SW
Cosmos 1607 4.4 02:19:54 10° NW 02:25:49 39° WSW 02:31:44 10° S
CZ-4C R/B 3.4 02:23:39 10° SSE 02:26:49 59° ENE 02:30:05 10° N
Cosmos 990 Rocket 4.1 02:23:20 18° SW 02:27:08 63° WNW 02:32:17 10° NNE
Timation 1 Rocket 4.5 02:22:56 14° SSW 02:28:07 76° ESE 02:34:05 10° NNE
IRS-1D 4.3 02:23:51 10° N 02:28:25 36° WNW 02:31:55 16° WSW
Cosmos 2263 Rocket 2.8 02:24:10 10° S 02:29:32 52° ESE 02:34:56 10° NE
CZ-4B R/B 4.4 02:28:12 10° ESE 02:30:33 18° ENE 02:32:51 10° NNE
Cosmos 2297 Rocket 3.5 02:27:24 12° WSW 02:31:41 28° NW 02:36:30 10° NNE
Okean 1-7 Rocket 4.3 02:27:59 10° NNW 02:31:58 34° W 02:35:04 15° SSW
Cosmos 1703 4.4 02:30:19 10° N 02:34:11 47° ENE 02:38:00 10° SSE
IRS-1C 4.4 02:29:05 10° N 02:34:16 53° WNW 02:38:43 14° SW
Meteor 2-10 4.2 02:29:39 10° S 02:35:05 87° E 02:40:46 10° NNE
NOSS 2-3 (D) 4.3 02:33:37 12° SSW 02:37:22 50° ESE 02:42:10 10° NE
Cosmos 1626 3.9 02:35:35 10° NW 02:37:53 16° W 02:38:57 14° WSW
Meteor 1-28 Rocket 4.0 02:36:22 15° SSW 02:39:01 32° W 02:42:28 10° NNW
Cosmos 1602 Rocket 3.5 02:37:08 10° NNW 02:41:31 75° W 02:45:50 10° S
Cosmos 1470 3.7 02:41:43 15° SW 02:44:26 33° WNW 02:48:05 10° N
CZ-2C R/B 3.8 02:40:25 10° NNE 02:44:37 35° E 02:48:50 10° SSE
Cosmos 1603 3.7 02:40:49 10° NNW 02:46:35 77° WSW 02:52:16 10° SSE
Meteor 2-21 Rocket 4.4 02:41:34 10° NNW 02:47:37 78° W 02:53:40 10° S
SL-08 R/B 4.2 02:44:01 10° SSW 02:48:23 31° W 02:52:48 10° NNW
Meteor 2-16 Rocket 4.5 02:44:50 10° N 02:51:01 86° W 02:57:11 10° S
USA 229 DEB 3.7 02:48:34 12° SW 02:54:48 83° NW 03:01:46 10° NE
USA 229 3.7 02:48:40 12° SW 02:54:52 83° NW 03:01:50 10° NE
ERBS 4.3 03:03:33 10° WSW 03:03:57 11° SW 03:04:39 10° SW
Cosmos 2298 Rocket 4.4 02:58:51 10° S 03:04:07 70° ESE 03:09:26 10° NNE
NOSS 2-3 (C) 3.7 03:01:15 10° SW 03:05:33 88° SE 03:10:42 10° NE
SJ 16-02 3.2 03:02:41 10° W 03:05:49 19° NW 03:08:57 10° N
NOSS 3-1 (A) 3.4 03:00:20 10° SW 03:05:51 89° SE 03:12:22 10° NE
ADEOS Rocket 4.3 03:04:08 10° SE 03:11:34 61° ENE 03:19:13 10° N
MSX 3.9 03:06:41 10° N 03:12:26 70° WNW 03:18:09 10° SSW
PSLV R/B 3.8 03:09:07 10° NNE 03:13:32 79° ESE 03:17:53 10° S
Cosmos 1943 3.3 03:08:16 10° NW 03:13:46 57° WSW 03:19:15 10° S
PAYLOAD A 4.2 03:14:25 10° NNE 03:19:52 87° ESE 03:25:07 10° SSW
deb Chang Zheng 4 4.2 03:16:04 10° NNE 03:20:23 60° ESE 03:24:41 10° S
SeaSat 1 2.5 03:16:03 10° NNE 03:21:01 82° WNW 03:25:57 10° SW
Cosmos 2227 Rocket 4.1 03:17:45 10° WNW 03:21:25 17° NW 03:25:05 10° N
